Location: Lecco
(45.8566°N, 9.3977°E)
Time: 11:45:03
(UTC+02:00)

Explorer 11/Cluster Stage 4 - Pass Details

Date: 19 August 2020
Orbit: 467 x 1258 km, 28.8° (Epoch: 24 September)

Event Time Altitude Azimuth Distance (km) Brightness Sun altitude
Rises 19:22:59 0° 207° (SSW) 3,343 10.1 9.4°
Reaches altitude 10° 19:27:30 10° 174° (S) 2,630 9.2 8.6°
Maximum altitude 19:29:22 11° 157° (SSE) 2,620 9.0 8.3°
Drops below altitude 10° 19:31:19 10° 140° (SE) 2,799 9.0 8.0°
Sets 19:36:40 0° 110° (ESE) 3,957 9.5 7.0°
